Starlink 30254

operational
NORAD ID: 57533 Int'l Des: 2023-115 Owner: SPXS Country: US Constellation: starlink
LEOCIRCULAR

关于 Starlink 30254

正在加载描述...

实时位置

正在加载3D地球...

即将过境

高度历史

Altitude vs Time

uPlot chart will show altitude changes over time

两行轨道根数

1 57533U 23115N 25307.71364551 .00000797 00000-0 38474-4 0 9997
2 57533 43.0013 94.6056 0001005 278.8832 81.1906 15.27581103126096
Epoch: Nov 3, 2025 • Age: 10 hours

当前状态

高度 491.7 km
速度 7.62 km/s
星下点 -32.83°S, 141.34°W
发射日期 Aug 8, 2023
运行时间 2.2 years
类型 internet

技术详情

分类 Payload
质量 730.00 kg
干质量 700.00 kg
总质量 730.00 kg
长度 0.30 m
直径 4.10 m
跨度 29.00 m
形状 Box + pan
制造商 SPXS
平台类型 Starlink V2M
阶段状态 In Orbit
所有者/国家 SPXS/US

大型星座

Loading constellations...